Location: Recife
(8.0585°S, 34.8848°W)
Time: 06:31:46
(UTC-03:00)

Vanguard 1 Rocket - Pass Details

Date: 15 April 2026
Orbit: 655 x 4212 km, 34.3° (Epoch: 13 May)

Event Time Altitude Azimuth Distance (km) Brightness Sun altitude
Rises 09:10:15 0° 257° (WSW) 3,032 9.7 53.1°
Reaches altitude 10° 09:14:53 10° 212° (SSW) 2,074 9.1 54.1°
Maximum altitude 09:15:37 10° 202° (SSW) 2,071 9.1 54.3°
Drops below altitude 10° 09:16:22 10° 192° (SSW) 2,118 9.2 54.5°
Sets 09:21:32 0° 149° (SSE) 3,397 10.4 55.6°
